This is the latest recevied weather packets stored in our database for station/object W4UWO. If no packets are shown the sender has not sent any weather packets the latest 10 day(s).
| Time | Temp. | Humidity | Pressure | Rain* | Wind** | Luminosity | Snow |
|---|---|---|---|---|---|---|---|
| 1788407782 | 26.67° C | 80% | 1017.9 hPa | 0 mm | - | 0 W/m² | - |
| 1788407478 | 27.22° C | 79% | 1017.9 hPa | 0 mm | - | 0 W/m² | - |
| 1788407172 | 27.22° C | 79% | 1018 hPa | 0 mm | - | 0 W/m² | - |
| 1788406867 | 27.22° C | 79% | 1017.9 hPa | 0 mm | - | 0 W/m² | - |
| 1788406563 | 27.22° C | 78% | 1018 hPa | 0 mm | - | 0 W/m² | - |
| 1788406258 | 27.78° C | 78% | 1017.8 hPa | 0 mm | - | 0 W/m² | - |
| 1788405952 | 27.78° C | 77% | 1018.1 hPa | 0 mm | - | 0 W/m² | - |
| 1788405648 | 27.78° C | 76% | 1017.9 hPa | 0 mm | - | 0 W/m² | - |
| 1788405351 | 27.78° C | 77% | 1018 hPa | 0 mm | - | 0 W/m² | - |
| 1788405043 | 27.78° C | 75% | 1018 hPa | 0 mm | - | 0 W/m² | - |
| 1788404738 | 27.22° C | 76% | 1018.2 hPa | 0 mm | - | 0 W/m² | - |
| 1788404435 | 27.78° C | 76% | 1017.9 hPa | 0 mm | - | 0 W/m² | - |
| 1788404130 | 27.78° C | 75% | 1018.1 hPa | 0 mm | - | 0 W/m² | - |
| 1788403826 | 27.78° C | 75% | 1018.1 hPa | 0 mm | - | 0 W/m² | - |
| 1788403525 | 27.78° C | 75% | 1018 hPa | 0 mm | - | 0 W/m² | - |
| 1788403219 | 27.78° C | 75% | 1017.9 hPa | 0 mm | - | 0 W/m² | - |
| 1788402915 | 28.33° C | 74% | 1018 hPa | 0 mm | - | 0 W/m² | - |
| 1788402610 | 28.33° C | 74% | 1018 hPa | 0 mm | - | 0 W/m² | - |
| 1788402309 | 28.89° C | 73% | 1017.8 hPa | 0 mm | - | 0 W/m² | - |
| 1788402008 | 28.33° C | 74% | 1017.9 hPa | 0 mm | - | 0 W/m² | - |
| 1788401703 | 28.89° C | 72% | 1017.9 hPa | 0 mm | - | 0 W/m² | - |
| 1788401398 | 28.89° C | 70% | 1017.9 hPa | 0 mm | - | 0 W/m² | - |
| 1788401094 | 28.89° C | 70% | 1017.9 hPa | 0 mm | - | 0 W/m² | - |
| 1788400794 | 29.44° C | 69% | 1017.8 hPa | 0 mm | - | 0 W/m² | - |
| 1788400490 | 30° C | 68% | 1017.9 hPa | 0 mm | - | 0 W/m² | - |
* Rain latest hour (hover to see other rain measurements)
** Current wind speed in m/s (hover to see current wind gust speed)